COSMOS 2251 DEB, 33813

Orbit data source: Space-Track

COSMOS 2251 DEB, 33813 is space debris in LEO originally from a launch on Wed, 16 Jun 1993 UTC launched from the Plesetsk Missile And Space Complex (PKMTR). The debris from Iridium 33, an American commercial communications satellite, has been tracked extensively since its accidental collision with the defunct Russian satellite Cosmos 2251 in 2009. This event, occurring at high speed in low Earth orbit (LEO), generated thousands of pieces of space debris, significantly increasing the risk of further collisions. The Iridium 33 debris cloud has impacted space traffic management and orbital debris mitigation strategies, making it a subject of ongoing study in space situational awareness.

Loading next visibility...
Identifier
33813, 1993-036BE
Orbit
LEO
Country
Flag of CISCIS
Related business
Manufacturer
Unknown
Mission
Spacecraft
Bus & Motor
Unknown
Mass
Unknown
Launch date (UTC)
1993-06-16 (32 years ago)
Launch vehicle
Unknown
Launch site
Plesetsk Missile And Space Complex (PKMTR)
Object type
Payload
Rocket body
Debris
Shape & HBR
Unknown shape, 0.1 m
Radar Cross Section
Small (<0.1 m²)

Expand to show TLE details & history
Last TLE update: 17 hours ago

TLE from 17 hours ago
0 COSMOS 2251 DEB
1 33813U 93036BE  25288.71441120  .00578863  00000-0  43778-2 0  9992
2 33813  74.0051  28.8550 0010896  42.5787 317.6279 15.70578110896858
Epoch: 2025-10-15T17:08Z
TLE epoch observation values (Epoch: 2025-10-15T17:08:45.127Z)
Latitude
-0.00007°
Longitude
107.18243°
Altitude
354.594 km
Speed
7.7 km/s
True Right ascension
01h 55m 25s
True Declination
0° 00' 00"
Sunlit
Object was in full shadow at epoch
Visualization orbit readout
Latitude
Unknown
Longitude
Unknown
Altitude
Unknown
Speed
Unknown
Apparent Right ascension
Unknown
Apparent Declination
Unknown
Sunlit
N/A
Visualization observer readout
Local Sidereal Time
04:21:38
Azimuth
Unknown
Elevation
Unknown
Doppler factor
Unknown
Orbital elements
Apogee altitude
362.06 km
Perigee altitude
347.388 km
Semi-major axis
6,732.861 km
Eccentricity
0.00109
Inclination
74.0051°
RAAN
28.855°
Arg. of periapsis
42.5787°
True anomaly
317.54367°
Mean anomaly
317.6279°
Eccentric anomaly
317.58579°
Mean motion
3.92865 °/min
Orbital period
91.63 mins
BSTAR
0.0043778
Loading maneuver chart data...
Computing Atmospheric mass density...

Documentation

Showing up to 5 results
|